When you browse on this site, cookies collect data to enhance your experience and personalize the content and advertising you see.
Visit our Privacy Policy to learn more. By continuing to use the site, you agree to this use of cookies and data.
  • In Latvia
  • List of Countries
  • For 7 days
  • Water Temperature
  • Weather Map
  • Weather Widgets
  • user-avatar
    Login

    Hourly Weather Blazhi

    Today, 14 October, Monday

    Time Temperature Precipitation Wind Pressure Humidity
    00:00 +7°C° 0 mm 2 mps 753 mmHg 95%
    01:00 +6°C° 0 mm 2 mps 753 mmHg 96%
    02:00 +7°C° 0 mm 1 mps 753 mmHg 96%
    03:00 +7°C° 0 mm 1 mps 753 mmHg 96%
    04:00 +7°C° 0 mm 1 mps 752 mmHg 96%
    05:00 +7°C° 0 mm 1 mps 751 mmHg 97%
    06:00 +7°C° 1.6 mm 2 mps 751 mmHg 96%
    07:00 +7°C° 1.6 mm 3 mps 750 mmHg 96%
    08:00 +7°C° 1.6 mm 4 mps 749 mmHg 95%
    09:00 +10°C° 0.6 mm 4 mps 748 mmHg 94%
    10:00 +11°C° 0.6 mm 4 mps 747 mmHg 93%
    11:00 +13°C° 0.6 mm 5 mps 746 mmHg 92%
    12:00 +14°C° 0 mm 5 mps 746 mmHg 90%
    13:00 +15°C° 0 mm 5 mps 745 mmHg 88%
    14:00 +15°C° 0 mm 6 mps 745 mmHg 86%
    15:00 +15°C° 0.1 mm 5 mps 745 mmHg 85%
    16:00 +15°C° 0.1 mm 5 mps 745 mmHg 85%
    17:00 +14°C° 0.1 mm 5 mps 745 mmHg 84%
    18:00 +13°C° 0 mm 5 mps 746 mmHg 83%
    19:00 +13°C° 0 mm 5 mps 746 mmHg 81%
    20:00 +12°C° 0 mm 5 mps 747 mmHg 80%
    21:00 +12°C° 0 mm 5 mps 747 mmHg 82%
    22:00 +10°C° 0 mm 5 mps 748 mmHg 84%
    23:00 +11°C° 0 mm 4 mps 749 mmHg 86%

    Tomorrow, 15 October, Tuesday

    Time Temperature Precipitation Wind Pressure Humidity
    00:00 +11°C° 0 mm 4 mps 750 mmHg 87%
    01:00 +11°C° 0 mm 4 mps 751 mmHg 88%
    02:00 +11°C° 0 mm 3 mps 752 mmHg 89%
    03:00 +10°C° 0 mm 3 mps 753 mmHg 89%
    04:00 +9°C° 0 mm 3 mps 753 mmHg 89%
    05:00 +8°C° 0 mm 3 mps 754 mmHg 88%
    06:00 +7°C° 0 mm 3 mps 755 mmHg 87%
    07:00 +7°C° 0 mm 3 mps 756 mmHg 87%
    08:00 +5°C° 0 mm 3 mps 757 mmHg 86%
    09:00 +7°C° 0 mm 2 mps 757 mmHg 83%
    10:00 +7°C° 0 mm 2 mps 757 mmHg 80%
    11:00 +7°C° 0 mm 2 mps 758 mmHg 78%
    12:00 +8°C° 0 mm 2 mps 758 mmHg 76%
    13:00 +8°C° 0 mm 2 mps 758 mmHg 74%
    14:00 +8°C° 0 mm 2 mps 758 mmHg 72%
    15:00 +8°C° 0 mm 2 mps 758 mmHg 75%
    16:00 +7°C° 0 mm 2 mps 758 mmHg 79%
    17:00 +6°C° 0 mm 2 mps 758 mmHg 83%
    18:00 +6°C° 0 mm 2 mps 758 mmHg 84%
    19:00 +6°C° 0 mm 2 mps 758 mmHg 84%
    20:00 +4°C° 0 mm 3 mps 758 mmHg 85%
    21:00 +4°C° 0 mm 3 mps 758 mmHg 85%
    22:00 +4°C° 0 mm 3 mps 758 mmHg 86%
    23:00 +4°C° 0 mm 3 mps 758 mmHg 86%

    Day after tomorrow, 16 October, Wednesday

    Time Temperature Precipitation Wind Pressure Humidity
    00:00 +4°C° 0 mm 3 mps 758 mmHg 87%
    01:00 +4°C° 0 mm 3 mps 758 mmHg 88%
    02:00 +4°C° 0 mm 3 mps 757 mmHg 89%
    03:00 +4°C° 0 mm 3 mps 757 mmHg 90%
    04:00 +5°C° 0 mm 4 mps 756 mmHg 90%
    05:00 +5°C° 0 mm 4 mps 755 mmHg 91%
    06:00 +6°C° 0 mm 4 mps 755 mmHg 90%
    07:00 +6°C° 0 mm 4 mps 754 mmHg 89%
    08:00 +7°C° 0 mm 4 mps 754 mmHg 89%
    09:00 +8°C° 0 mm 4 mps 753 mmHg 86%
    10:00 +10°C° 0 mm 4 mps 752 mmHg 83%
    11:00 +11°C° 0 mm 4 mps 752 mmHg 80%
    12:00 +12°C° 0 mm 4 mps 751 mmHg 78%
    13:00 +13°C° 0 mm 4 mps 751 mmHg 77%
    14:00 +14°C° 0 mm 3 mps 751 mmHg 76%
    15:00 +13°C° 0 mm 3 mps 750 mmHg 80%
    16:00 +12°C° 0 mm 3 mps 750 mmHg 84%
    17:00 +13°C° 0 mm 2 mps 749 mmHg 89%
    18:00 +12°C° 0 mm 2 mps 749 mmHg 90%
    19:00 +12°C° 0 mm 2 mps 749 mmHg 90%
    20:00 +12°C° 0 mm 2 mps 749 mmHg 91%
    21:00 +12°C° 0 mm 2 mps 749 mmHg 92%
    22:00 +10°C° 0 mm 2 mps 748 mmHg 94%
    23:00 +10°C° 0 mm 2 mps 748 mmHg 95%

    17 October, Thursday

    Time Temperature Precipitation Wind Pressure Humidity
    00:00 +12°C° 0 mm 2 mps 748 mmHg 96%
    01:00 +12°C° 0 mm 2 mps 749 mmHg 96%
    02:00 +12°C° 0 mm 2 mps 749 mmHg 97%
    03:00 +11°C° 0.2 mm 3 mps 749 mmHg 96%
    04:00 +12°C° 0.2 mm 3 mps 749 mmHg 95%
    05:00 +13°C° 0.2 mm 4 mps 749 mmHg 94%
    06:00 +12°C° 0 mm 4 mps 749 mmHg 93%
    07:00 +12°C° 0 mm 3 mps 749 mmHg 91%
    08:00 +12°C° 0 mm 3 mps 750 mmHg 90%
    09:00 +12°C° 0 mm 3 mps 750 mmHg 86%
    10:00 +13°C° 0 mm 3 mps 750 mmHg 83%
    11:00 +13°C° 0 mm 3 mps 751 mmHg 79%
    12:00 +12°C° 0.3 mm 3 mps 751 mmHg 81%
    13:00 +12°C° 0.3 mm 3 mps 751 mmHg 84%
    14:00 +11°C° 0.3 mm 3 mps 751 mmHg 86%
    15:00 +11°C° 0.4 mm 3 mps 751 mmHg 88%
    16:00 +10°C° 0.4 mm 2 mps 751 mmHg 90%
    17:00 +11°C° 0.4 mm 1 mps 751 mmHg 92%
    18:00 +11°C° 0.1 mm 1 mps 751 mmHg 93%
    19:00 +11°C° 0.1 mm 1 mps 751 mmHg 94%
    20:00 +11°C° 0.1 mm 1 mps 751 mmHg 95%
    21:00 +10°C° 0 mm 1 mps 752 mmHg 96%
    22:00 +10°C° 0 mm 1 mps 752 mmHg 96%
    23:00 +8°C° 0 mm 0 mps 752 mmHg 97%

    18 October, Friday

    Time Temperature Precipitation Wind Pressure Humidity
    00:00 +8°C° 0 mm 0 mps 753 mmHg 97%
    01:00 +8°C° 0 mm 0 mps 753 mmHg 97%
    02:00 +8°C° 0 mm 0 mps 753 mmHg 97%
    03:00 +9°C° 0 mm 1 mps 753 mmHg 96%
    04:00 +9°C° 0 mm 1 mps 754 mmHg 96%
    05:00 +9°C° 0 mm 1 mps 754 mmHg 96%
    06:00 +9°C° 0 mm 1 mps 754 mmHg 95%
    07:00 +9°C° 0 mm 1 mps 755 mmHg 95%
    08:00 +9°C° 0 mm 1 mps 755 mmHg 95%
    09:00 +10°C° 0 mm 1 mps 755 mmHg 94%
    10:00 +10°C° 0 mm 1 mps 756 mmHg 93%
    11:00 +10°C° 0 mm 1 mps 756 mmHg 92%
    12:00 +10°C° 0 mm 1 mps 756 mmHg 92%
    13:00 +11°C° 0 mm 1 mps 756 mmHg 92%
    14:00 +11°C° 0 mm 1 mps 756 mmHg 92%
    15:00 +11°C° 0 mm 1 mps 756 mmHg 92%
    16:00 +10°C° 0 mm 1 mps 756 mmHg 93%
    17:00 +10°C° 0 mm 1 mps 756 mmHg 94%
    18:00 +10°C° 0 mm 1 mps 756 mmHg 94%
    19:00 +10°C° 0 mm 1 mps 756 mmHg 95%
    20:00 +10°C° 0 mm 1 mps 756 mmHg 95%
    21:00 +10°C° 0 mm 1 mps 756 mmHg 95%
    22:00 +9°C° 0 mm 2 mps 756 mmHg 95%
    23:00 +9°C° 0 mm 2 mps 756 mmHg 95%

    19 October, Saturday

    Time Temperature Precipitation Wind Pressure Humidity
    00:00 +9°C° 0.3 mm 2 mps 757 mmHg 95%
    01:00 +9°C° 0.3 mm 2 mps 757 mmHg 96%
    02:00 +9°C° 0.3 mm 2 mps 757 mmHg 96%
    03:00 +9°C° 0.4 mm 2 mps 757 mmHg 97%
    04:00 +10°C° 0.4 mm 1 mps 757 mmHg 97%
    05:00 +10°C° 0.4 mm 1 mps 757 mmHg 98%
    06:00 +10°C° 0 mm 1 mps 757 mmHg 98%
    07:00 +10°C° 0 mm 1 mps 757 mmHg 98%
    08:00 +10°C° 0 mm 1 mps 757 mmHg 97%
    09:00 +11°C° 0 mm 1 mps 757 mmHg 92%
    10:00 +12°C° 0 mm 1 mps 757 mmHg 87%
    11:00 +13°C° 0 mm 1 mps 757 mmHg 83%
    12:00 +13°C° 0 mm 1 mps 757 mmHg 81%
    13:00 +14°C° 0 mm 2 mps 757 mmHg 79%
    14:00 +14°C° 0 mm 2 mps 757 mmHg 78%
    15:00 +13°C° 0 mm 1 mps 757 mmHg 82%
    16:00 +13°C° 0 mm 1 mps 757 mmHg 86%
    17:00 +12°C° 0 mm 1 mps 757 mmHg 90%
    18:00 +12°C° 0 mm 1 mps 757 mmHg 90%
    19:00 +12°C° 0 mm 1 mps 758 mmHg 90%
    20:00 +11°C° 0 mm 1 mps 758 mmHg 91%
    21:00 +11°C° 0 mm 1 mps 758 mmHg 92%
    22:00 +11°C° 0 mm 1 mps 758 mmHg 93%
    23:00 +11°C° 0 mm 1 mps 758 mmHg 94%
    Show more